Location: North Bay
(46.3091°N, 79.4608°W)
Time: 15:16:31
(UTC-05:00)

N. Korean satellite - Pass Details

Date: 28 October 2019
Orbit: 456 x 506 km, 97.2° (Epoch: 22 November)

Event Time Altitude Azimuth Distance (km) Brightness Sun altitude
Rises 06:47:42 0° 19° (NNE) 2,588 10.4 -11.8°
Reaches altitude 10° 06:49:54 10° 28° (NNE) 1,708 9.6 -11.4°
Maximum altitude 06:53:20 38° 98° (E) 787 8.4 -10.9°
Drops below altitude 10° 06:56:48 10° 167° (SSE) 1,710 9.6 -10.3°
Sets 06:58:59 0° 176° (S) 2,593 10.4 -9.9°
